Terminal Aerodrome Forecast
Issued by NWS

Home | Current Version | Previous Version | Text Only | Print | Product List | Glossary On
Versions: 1 2 3 4 5 6 7 8 9 10 11 12 13
000
FTUS46 KSTO 020900 AAA
TAFRDD
TAF AMD
KRDD 020901Z 0209/0306 36012G20KT P6SM SKC
     FM030300 VRB05KT P6SM SKC=

USA.gov is the U.S. government's official web portal to all federal, state and local government web resources and services.